This is the latest recevied weather packets stored in our database for station/object W7JFO-3. If no packets are shown the sender has not sent any weather packets the latest 10 day(s).
| Time | Temp. | Humidity | Pressure | Rain* | Wind** | Luminosity | Snow |
|---|---|---|---|---|---|---|---|
| 1777170727 | 2.78° C | 56% | 1011.1 hPa | 0 mm | - | 0 W/m² | - |
| 1777169827 | 3.33° C | 54% | 1011.1 hPa | 0 mm | - | 11 W/m² | - |
| 1777168927 | 3.89° C | 54% | 1011.1 hPa | 0 mm | - | 28 W/m² | - |
| 1777168027 | 3.89° C | 55% | 1011.1 hPa | 0 mm | - | 54 W/m² | - |
| 1777167127 | 3.89° C | 50% | 1011 hPa | 0 mm | - | 60 W/m² | - |
| 1777166227 | 3.89° C | 50% | 1010.9 hPa | 0 mm | - | 74 W/m² | - |
| 1777165327 | 3.89° C | 49% | 1011 hPa | 0 mm | - | 95 W/m² | - |
| 1777164427 | 4.44° C | 50% | 1011.1 hPa | 0 mm | - | 174 W/m² | - |
| 1777163527 | 4.44° C | 48% | 1011.2 hPa | 0 mm | - | 229 W/m² | - |
| 1777162627 | 4.44° C | 46% | 1011.2 hPa | 0 mm | - | 346 W/m² | - |
| 1777161727 | 4.44° C | 46% | 1011.1 hPa | 0 mm | - | 283 W/m² | - |
| 1777160827 | 4.44° C | 46% | 1011.3 hPa | 0 mm | - | 397 W/m² | - |
| 1777159927 | 4.44° C | 44% | 1011.4 hPa | 0 mm | - | 214 W/m² | - |
| 1777159027 | 4.44° C | 47% | 1011.5 hPa | 0 mm | - | 343 W/m² | - |
| 1777158127 | 4.44° C | 45% | 1011.6 hPa | 0 mm | - | 320 W/m² | - |
| 1777157227 | 4.44° C | 46% | 1011.8 hPa | 0 mm | - | 287 W/m² | - |
| 1777156327 | 3.89° C | 47% | 1011.9 hPa | 0 mm | - | 345 W/m² | - |
| 1777155427 | 3.89° C | 46% | 1012 hPa | 0 mm | - | 295 W/m² | - |
| 1777154527 | 3.89° C | 44% | 1012.2 hPa | 0 mm | - | 271 W/m² | - |
| 1777153627 | 3.89° C | 46% | 1012.3 hPa | 0 mm | - | 418 W/m² | - |
| 1777152727 | 3.33° C | 45% | 1012.5 hPa | 0 mm | - | 257 W/m² | - |
| 1777151827 | 3.89° C | 43% | 1012.7 hPa | 0 mm | - | 473 W/m² | - |
| 1777150927 | 3.33° C | 45% | 1012.8 hPa | 0 mm | - | 338 W/m² | - |
| 1777150027 | 3.33° C | 43% | 1012.8 hPa | 0 mm | - | 364 W/m² | - |
| 1777149127 | 3.33° C | 44% | 1013 hPa | 0 mm | - | 258 W/m² | - |
* Rain latest hour (hover to see other rain measurements)
** Current wind speed in m/s (hover to see current wind gust speed)